Year,Month,Day,Hour,Minute,Value (Times are PST for windspeed in km/hr)
2007,02,17,00,00,9.80
2007,02,17,00,01,10.20
2007,02,17,00,02,7.10
2007,02,17,00,03,5.20
2007,02,17,00,04,10.20
2007,02,17,00,05,7.40
2007,02,17,00,06,7.60
2007,02,17,00,07,9.10
2007,02,17,00,08,6.80
2007,02,17,00,09,10.70
2007,02,17,00,10,8.40
2007,02,17,00,11,8.50
2007,02,17,00,12,9.40
2007,02,17,00,13,4.80
2007,02,17,00,14,7.30
2007,02,17,00,15,7.30
2007,02,17,00,16,4.70
2007,02,17,00,17,4.80
2007,02,17,00,18,5.60
2007,02,17,00,19,5.40
2007,02,17,00,20,6.20
2007,02,17,00,21,6.70
2007,02,17,00,22,7.20
2007,02,17,00,23,8.00
2007,02,17,00,24,2.80
2007,02,17,00,25,7.00
2007,02,17,00,26,8.90
2007,02,17,00,27,5.70
2007,02,17,00,28,4.10
2007,02,17,00,29,7.10
2007,02,17,00,30,4.90
2007,02,17,00,31,5.30
2007,02,17,00,32,4.80
2007,02,17,00,33,5.60
2007,02,17,00,34,3.40
2007,02,17,00,35,6.50
2007,02,17,00,36,7.30
2007,02,17,00,37,7.40
2007,02,17,00,38,2.30
2007,02,17,00,39,4.10
2007,02,17,00,40,3.10
2007,02,17,00,41,9.30
2007,02,17,00,42,7.10
2007,02,17,00,43,5.30
2007,02,17,00,44,3.10
2007,02,17,00,45,5.60
2007,02,17,00,46,1.90
2007,02,17,00,47,6.20
2007,02,17,00,48,7.60
2007,02,17,00,49,4.20
2007,02,17,00,50,2.30
2007,02,17,00,51,3.20
2007,02,17,00,52,5.50
2007,02,17,00,53,4.90
2007,02,17,00,54,5.70
2007,02,17,00,55,1.90
2007,02,17,00,56,2.30
2007,02,17,00,57,2.80
2007,02,17,00,58,3.00
2007,02,17,00,59,1.80
2007,02,17,01,00,6.60
2007,02,17,01,01,1.90
2007,02,17,01,02,4.30
2007,02,17,01,03,2.40
2007,02,17,01,04,2.40
2007,02,17,01,05,4.80
2007,02,17,01,06,4.50
2007,02,17,01,07,2.90
2007,02,17,01,08,1.00
2007,02,17,01,09,1.50
2007,02,17,01,10,3.20
2007,02,17,01,11,3.20
2007,02,17,01,12,2.70
2007,02,17,01,13,4.70
2007,02,17,01,14,4.00
2007,02,17,01,15,5.40
2007,02,17,01,16,2.90
2007,02,17,01,17,3.80
2007,02,17,01,18,11.30
2007,02,17,01,19,2.50
2007,02,17,01,20,2.40
2007,02,17,01,21,6.10
2007,02,17,01,22,6.10
2007,02,17,01,23,5.80
2007,02,17,01,24,4.30
2007,02,17,01,25,4.60
2007,02,17,01,26,3.90
2007,02,17,01,27,2.20
2007,02,17,01,28,0.80
2007,02,17,01,29,0.00
2007,02,17,01,30,4.20
2007,02,17,01,31,4.80
2007,02,17,01,32,1.20
2007,02,17,01,33,1.20
2007,02,17,01,34,0.00
2007,02,17,01,35,0.50
2007,02,17,01,36,1.90
2007,02,17,01,37,5.60
2007,02,17,01,38,2.90
2007,02,17,01,39,1.60
2007,02,17,01,40,0.10
2007,02,17,01,41,1.50
2007,02,17,01,42,2.20
2007,02,17,01,43,0.40
2007,02,17,01,44,4.40
2007,02,17,01,45,4.40
2007,02,17,01,46,3.30
2007,02,17,01,47,4.30
2007,02,17,01,48,0.20
2007,02,17,01,49,2.10
2007,02,17,01,50,1.90
2007,02,17,01,51,0.00
2007,02,17,01,52,0.70
2007,02,17,01,53,0.40
2007,02,17,01,54,1.30
2007,02,17,01,55,1.40
2007,02,17,01,56,4.20
2007,02,17,01,57,0.30
2007,02,17,01,58,0.70
2007,02,17,01,59,2.40
2007,02,17,02,00,0.30
2007,02,17,02,01,0.30
2007,02,17,02,02,1.40
2007,02,17,02,03,1.40
2007,02,17,02,04,0.90
2007,02,17,02,05,2.60
2007,02,17,02,06,3.80
2007,02,17,02,07,1.60
2007,02,17,02,08,0.40
2007,02,17,02,09,1.40
2007,02,17,02,10,1.90
2007,02,17,02,11,4.00
2007,02,17,02,12,0.30
2007,02,17,02,13,5.60
2007,02,17,02,14,3.50
2007,02,17,02,15,1.00
2007,02,17,02,16,2.90
2007,02,17,02,17,2.10
2007,02,17,02,18,0.60
2007,02,17,02,19,0.20
2007,02,17,02,20,4.30
2007,02,17,02,21,4.50
2007,02,17,02,22,0.10
2007,02,17,02,23,1.50
2007,02,17,02,24,6.80
2007,02,17,02,25,6.00
2007,02,17,02,26,2.60
2007,02,17,02,27,2.40
2007,02,17,02,28,2.70
2007,02,17,02,29,3.80
2007,02,17,02,30,2.80
2007,02,17,02,31,5.70
2007,02,17,02,32,7.60
2007,02,17,02,33,5.10
2007,02,17,02,34,3.10
2007,02,17,02,35,4.20
2007,02,17,02,36,4.70
2007,02,17,02,37,1.90
2007,02,17,02,38,4.80
2007,02,17,02,39,5.80
2007,02,17,02,40,3.00
2007,02,17,02,41,0.30
2007,02,17,02,42,3.40
2007,02,17,02,43,4.10
2007,02,17,02,44,4.60
2007,02,17,02,45,3.10
2007,02,17,02,46,0.90
2007,02,17,02,47,0.10
2007,02,17,02,48,3.10
2007,02,17,02,49,1.00
2007,02,17,02,50,1.70
2007,02,17,02,51,0.00
2007,02,17,02,52,1.70
2007,02,17,02,53,5.30
2007,02,17,02,54,4.30
2007,02,17,02,55,5.80
2007,02,17,02,56,3.50
2007,02,17,02,57,5.30
2007,02,17,02,58,2.10
2007,02,17,02,59,5.20
2007,02,17,03,00,5.90
2007,02,17,03,01,7.20
2007,02,17,03,02,7.00
2007,02,17,03,03,6.40
2007,02,17,03,04,7.30
2007,02,17,03,05,7.90
2007,02,17,03,06,4.50
2007,02,17,03,07,4.30
2007,02,17,03,08,6.00
2007,02,17,03,09,5.90
2007,02,17,03,10,1.70
2007,02,17,03,11,1.10
2007,02,17,03,12,1.70
2007,02,17,03,13,4.70
2007,02,17,03,14,2.20
2007,02,17,03,15,8.00
2007,02,17,03,16,6.80
2007,02,17,03,17,6.30
2007,02,17,03,18,4.00
2007,02,17,03,19,0.30
2007,02,17,03,20,0.10
2007,02,17,03,21,1.50
2007,02,17,03,22,2.50
2007,02,17,03,23,1.20
2007,02,17,03,24,3.70
2007,02,17,03,25,2.30
2007,02,17,03,26,1.00
2007,02,17,03,27,0.40
2007,02,17,03,28,1.10
2007,02,17,03,29,0.20
2007,02,17,03,30,1.90
2007,02,17,03,31,4.40
2007,02,17,03,32,2.30
2007,02,17,03,33,1.50
2007,02,17,03,34,4.20
2007,02,17,03,35,1.50
2007,02,17,03,36,4.10
2007,02,17,03,37,5.60
2007,02,17,03,38,3.90
2007,02,17,03,39,4.80
2007,02,17,03,40,2.70
2007,02,17,03,41,1.60
2007,02,17,03,42,8.30
2007,02,17,03,43,7.60
2007,02,17,03,44,7.90
2007,02,17,03,45,8.80
2007,02,17,03,46,9.20
2007,02,17,03,47,10.30
2007,02,17,03,48,4.90
2007,02,17,03,49,2.60
2007,02,17,03,50,2.20
2007,02,17,03,51,0.80
2007,02,17,03,52,0.00
2007,02,17,03,53,0.00
2007,02,17,03,54,1.40
2007,02,17,03,55,1.80
2007,02,17,03,56,2.50
2007,02,17,03,57,1.90
2007,02,17,03,58,0.80
2007,02,17,03,59,0.00
2007,02,17,04,00,0.00
2007,02,17,04,01,0.80
2007,02,17,04,02,3.00
2007,02,17,04,03,4.00
2007,02,17,04,04,4.40
2007,02,17,04,05,4.90
2007,02,17,04,06,4.60
2007,02,17,04,07,4.80
2007,02,17,04,08,5.90
2007,02,17,04,09,6.40
2007,02,17,04,10,7.40
2007,02,17,04,11,7.70
2007,02,17,04,12,4.30
2007,02,17,04,13,3.10
2007,02,17,04,14,0.00
2007,02,17,04,15,0.30
2007,02,17,04,16,0.00
2007,02,17,04,17,0.00
2007,02,17,04,18,0.20
2007,02,17,04,19,0.50
2007,02,17,04,20,0.00
2007,02,17,04,21,0.00
2007,02,17,04,22,0.00
2007,02,17,04,23,0.00
2007,02,17,04,24,0.00
2007,02,17,04,25,0.00
2007,02,17,04,26,0.00
2007,02,17,04,27,0.00
2007,02,17,04,28,0.00
2007,02,17,04,29,0.00
2007,02,17,04,30,0.00
2007,02,17,04,31,0.10
2007,02,17,04,32,2.60
2007,02,17,04,33,2.40
2007,02,17,04,34,0.30
2007,02,17,04,35,0.10
2007,02,17,04,36,0.00
2007,02,17,04,37,0.00
2007,02,17,04,38,0.00
2007,02,17,04,39,0.00
2007,02,17,04,40,0.00
2007,02,17,04,41,0.00
2007,02,17,04,42,0.00
2007,02,17,04,43,0.00
2007,02,17,04,44,0.00
2007,02,17,04,45,2.00
2007,02,17,04,46,2.40
2007,02,17,04,47,0.30
2007,02,17,04,48,0.60
2007,02,17,04,49,0.00
2007,02,17,04,50,2.20
2007,02,17,04,51,2.50
2007,02,17,04,52,1.80
2007,02,17,04,53,0.00
2007,02,17,04,54,0.00
2007,02,17,04,55,0.00
2007,02,17,04,56,0.00
2007,02,17,04,57,0.00
2007,02,17,04,58,0.00
2007,02,17,04,59,0.00
2007,02,17,05,00,0.00
2007,02,17,05,01,0.00
2007,02,17,05,02,2.00
2007,02,17,05,03,3.60
2007,02,17,05,04,2.60
2007,02,17,05,05,2.60
2007,02,17,05,06,2.80
2007,02,17,05,07,3.30
2007,02,17,05,08,3.00
2007,02,17,05,09,3.90
2007,02,17,05,10,6.50
2007,02,17,05,11,5.10
2007,02,17,05,12,3.00
2007,02,17,05,13,2.00
2007,02,17,05,14,1.00
2007,02,17,05,15,3.10
2007,02,17,05,16,3.90
2007,02,17,05,17,1.40
2007,02,17,05,18,2.70
2007,02,17,05,19,3.70
2007,02,17,05,20,0.00
2007,02,17,05,21,0.10
2007,02,17,05,22,0.20
2007,02,17,05,23,0.10
2007,02,17,05,24,0.60
2007,02,17,05,25,4.00
2007,02,17,05,26,3.90
2007,02,17,05,27,1.70
2007,02,17,05,28,0.00
2007,02,17,05,29,0.80
2007,02,17,05,30,0.20
2007,02,17,05,31,1.30
2007,02,17,05,32,1.70
2007,02,17,05,33,4.30
2007,02,17,05,34,2.10
2007,02,17,05,35,2.30
2007,02,17,05,36,1.70
2007,02,17,05,37,1.50
2007,02,17,05,38,3.00
2007,02,17,05,39,3.30
2007,02,17,05,40,5.20
2007,02,17,05,41,3.10
2007,02,17,05,42,1.50
2007,02,17,05,43,1.40
2007,02,17,05,44,2.30
2007,02,17,05,45,4.00
2007,02,17,05,46,2.10
2007,02,17,05,47,0.50
2007,02,17,05,48,0.10
2007,02,17,05,49,0.10
2007,02,17,05,50,0.10
2007,02,17,05,51,1.40
2007,02,17,05,52,0.00
2007,02,17,05,53,0.70
2007,02,17,05,54,0.00
2007,02,17,05,55,0.60
2007,02,17,05,56,4.40
2007,02,17,05,57,3.10
2007,02,17,05,58,0.20
2007,02,17,05,59,0.50
2007,02,17,06,00,1.50
2007,02,17,06,01,1.60
2007,02,17,06,02,1.40
2007,02,17,06,03,4.10
2007,02,17,06,04,4.70
2007,02,17,06,05,2.90
2007,02,17,06,06,2.40
2007,02,17,06,07,5.70
2007,02,17,06,08,0.50
2007,02,17,06,09,4.30
2007,02,17,06,10,3.50
2007,02,17,06,11,0.50
2007,02,17,06,12,3.50
2007,02,17,06,13,2.20
2007,02,17,06,14,2.60
2007,02,17,06,15,5.80
2007,02,17,06,16,4.30
2007,02,17,06,17,6.90
2007,02,17,06,18,5.90
2007,02,17,06,19,2.40
2007,02,17,06,20,6.10
2007,02,17,06,21,0.20
2007,02,17,06,22,0.10
2007,02,17,06,23,0.10
2007,02,17,06,24,3.00
2007,02,17,06,25,3.90
2007,02,17,06,26,3.80
2007,02,17,06,27,4.40
2007,02,17,06,28,3.00
2007,02,17,06,29,0.50
2007,02,17,06,30,2.00
2007,02,17,06,31,1.90
2007,02,17,06,32,3.20
2007,02,17,06,33,3.90
2007,02,17,06,34,1.50
2007,02,17,06,35,3.30
2007,02,17,06,36,3.10
2007,02,17,06,37,4.20
2007,02,17,06,38,6.40
2007,02,17,06,39,3.10
2007,02,17,06,40,4.30
2007,02,17,06,41,7.60
2007,02,17,06,42,10.90
2007,02,17,06,43,6.30
2007,02,17,06,44,6.10
2007,02,17,06,45,6.50
2007,02,17,06,46,2.40
2007,02,17,06,47,3.50
2007,02,17,06,48,6.80
2007,02,17,06,49,6.00
2007,02,17,06,50,5.50
2007,02,17,06,51,4.20
2007,02,17,06,52,6.00
2007,02,17,06,53,6.80
2007,02,17,06,54,5.00
2007,02,17,06,55,1.10
2007,02,17,06,56,3.90
2007,02,17,06,57,5.80
2007,02,17,06,58,6.20
2007,02,17,06,59,4.10
2007,02,17,07,00,3.60
2007,02,17,07,01,3.50
2007,02,17,07,02,3.40
2007,02,17,07,03,3.90
2007,02,17,07,04,3.20
2007,02,17,07,05,1.30
2007,02,17,07,06,2.20
2007,02,17,07,07,3.00
2007,02,17,07,08,3.50
2007,02,17,07,09,2.90
2007,02,17,07,10,3.30
2007,02,17,07,11,3.30
2007,02,17,07,12,6.80
2007,02,17,07,13,7.00
2007,02,17,07,14,6.40
2007,02,17,07,15,9.10
2007,02,17,07,16,6.10
2007,02,17,07,17,5.60
2007,02,17,07,18,0.90
2007,02,17,07,19,2.40
2007,02,17,07,20,1.50
2007,02,17,07,21,5.70
2007,02,17,07,22,3.00
2007,02,17,07,23,4.70
2007,02,17,07,24,0.60
2007,02,17,07,25,5.50
2007,02,17,07,26,3.80
2007,02,17,07,27,10.60
2007,02,17,07,28,7.70
2007,02,17,07,29,7.30
2007,02,17,07,30,7.60
2007,02,17,07,31,8.70
2007,02,17,07,32,6.70
2007,02,17,07,33,6.90
2007,02,17,07,34,6.70
2007,02,17,07,35,3.80
2007,02,17,07,36,5.20
2007,02,17,07,37,10.00
2007,02,17,07,38,10.50
2007,02,17,07,39,7.00
2007,02,17,07,40,6.80
2007,02,17,07,41,5.50
2007,02,17,07,42,7.40
2007,02,17,07,43,6.30
2007,02,17,07,44,7.80
2007,02,17,07,45,9.70
2007,02,17,07,46,6.20
2007,02,17,07,47,6.10
2007,02,17,07,48,2.40
2007,02,17,07,49,7.20
2007,02,17,07,50,6.00
2007,02,17,07,51,5.00
2007,02,17,07,52,4.70
2007,02,17,07,53,6.50
2007,02,17,07,54,12.20
2007,02,17,07,55,9.70
2007,02,17,07,56,10.30
2007,02,17,07,57,7.60
2007,02,17,07,58,7.60
2007,02,17,07,59,8.40
2007,02,17,08,00,12.90
2007,02,17,08,01,10.20
2007,02,17,08,02,9.60
2007,02,17,08,03,4.40
2007,02,17,08,04,6.70
2007,02,17,08,05,10.00
2007,02,17,08,06,8.10
2007,02,17,08,07,7.30
2007,02,17,08,08,9.90
2007,02,17,08,09,12.80
2007,02,17,08,10,9.70
2007,02,17,08,11,10.20
2007,02,17,08,12,10.90
2007,02,17,08,13,15.60
2007,02,17,08,14,7.40
2007,02,17,08,15,6.80
2007,02,17,08,16,10.30
2007,02,17,08,17,6.60
2007,02,17,08,18,11.20
2007,02,17,08,19,12.60
2007,02,17,08,20,14.10
2007,02,17,08,21,13.90
2007,02,17,08,22,8.40
2007,02,17,08,23,11.40
2007,02,17,08,24,8.80
2007,02,17,08,25,11.70
2007,02,17,08,26,15.70
2007,02,17,08,27,10.30
2007,02,17,08,28,8.10
2007,02,17,08,29,8.60
2007,02,17,08,30,8.40
2007,02,17,08,31,7.30
2007,02,17,08,32,6.10
2007,02,17,08,33,5.10
2007,02,17,08,34,4.60
2007,02,17,08,35,4.30
2007,02,17,08,36,5.10
2007,02,17,08,37,8.00
2007,02,17,08,38,3.90
2007,02,17,08,39,0.50
2007,02,17,08,40,2.30
2007,02,17,08,41,7.20
2007,02,17,08,42,4.70
2007,02,17,08,43,0.60
2007,02,17,08,44,0.10
2007,02,17,08,45,2.80
2007,02,17,08,46,3.60
2007,02,17,08,47,4.50
2007,02,17,08,48,0.10
2007,02,17,08,49,0.10
2007,02,17,08,50,0.60
2007,02,17,08,51,1.00
2007,02,17,08,52,0.00
2007,02,17,08,53,0.90
2007,02,17,08,54,3.00
2007,02,17,08,55,2.40
2007,02,17,08,56,3.30
2007,02,17,08,57,3.00
2007,02,17,08,58,6.00
2007,02,17,08,59,2.80
2007,02,17,09,00,0.40
2007,02,17,09,01,0.50
2007,02,17,09,02,8.00
2007,02,17,09,03,6.40
2007,02,17,09,04,8.10
2007,02,17,09,05,7.00
2007,02,17,09,06,10.50
2007,02,17,09,07,6.70
2007,02,17,09,08,9.70
2007,02,17,09,09,12.00
2007,02,17,09,10,9.10
2007,02,17,09,11,10.00
2007,02,17,09,12,10.10
2007,02,17,09,13,8.90
2007,02,17,09,14,7.90
2007,02,17,09,15,6.60
2007,02,17,09,16,6.60
2007,02,17,09,17,5.20
2007,02,17,09,18,6.70
2007,02,17,09,19,6.80
2007,02,17,09,20,9.50
2007,02,17,09,21,10.30
2007,02,17,09,22,3.10
2007,02,17,09,23,5.00
2007,02,17,09,24,6.40
2007,02,17,09,25,4.40
2007,02,17,09,26,4.10
2007,02,17,09,27,3.80
2007,02,17,09,28,8.90
2007,02,17,09,29,6.70
2007,02,17,09,30,3.50
2007,02,17,09,31,6.80
2007,02,17,09,32,5.00
2007,02,17,09,33,6.20
2007,02,17,09,34,5.40
2007,02,17,09,35,7.60
2007,02,17,09,36,7.30
2007,02,17,09,37,7.90
2007,02,17,09,38,7.70
2007,02,17,09,39,8.40
2007,02,17,09,40,6.90
2007,02,17,09,41,7.20
2007,02,17,09,42,11.90
2007,02,17,09,43,13.70
2007,02,17,09,44,10.00
2007,02,17,09,45,12.80
2007,02,17,09,46,18.30
2007,02,17,09,47,15.70
2007,02,17,09,48,11.80
2007,02,17,09,49,15.80
2007,02,17,09,50,12.50
2007,02,17,09,51,15.80
2007,02,17,09,52,16.90
2007,02,17,09,53,14.70
2007,02,17,09,54,15.60
2007,02,17,09,55,14.20
2007,02,17,09,56,12.50
2007,02,17,09,57,15.70
2007,02,17,09,58,13.60
2007,02,17,09,59,9.50
2007,02,17,10,00,10.70
2007,02,17,10,01,11.10
2007,02,17,10,02,9.60
2007,02,17,10,03,10.80
2007,02,17,10,04,15.30
2007,02,17,10,05,10.90
2007,02,17,10,06,10.10
2007,02,17,10,07,9.30
2007,02,17,10,08,12.70
2007,02,17,10,09,13.80
2007,02,17,10,10,10.00
2007,02,17,10,11,8.30
2007,02,17,10,12,9.00
2007,02,17,10,13,7.30
2007,02,17,10,14,8.20
2007,02,17,10,15,9.80
2007,02,17,10,16,6.90
2007,02,17,10,17,6.60
2007,02,17,10,18,8.10
2007,02,17,10,19,9.70
2007,02,17,10,20,8.70
2007,02,17,10,21,10.20
2007,02,17,10,22,8.40
2007,02,17,10,23,6.00
2007,02,17,10,24,6.30
2007,02,17,10,25,8.20
2007,02,17,10,26,7.00
2007,02,17,10,27,9.10
2007,02,17,10,28,9.00
2007,02,17,10,29,10.80
2007,02,17,10,30,10.30
2007,02,17,10,31,11.00
2007,02,17,10,32,9.60
2007,02,17,10,33,10.40
2007,02,17,10,34,8.60
2007,02,17,10,35,12.30
2007,02,17,10,36,10.30
2007,02,17,10,37,8.50
2007,02,17,10,38,10.10
2007,02,17,10,39,15.30
2007,02,17,10,40,15.50
2007,02,17,10,41,13.00
2007,02,17,10,42,9.80
2007,02,17,10,43,11.30
2007,02,17,10,44,13.90
2007,02,17,10,45,9.20
2007,02,17,10,46,9.50
2007,02,17,10,47,9.70
2007,02,17,10,48,11.60
2007,02,17,10,49,9.10
2007,02,17,10,50,6.30
2007,02,17,10,51,5.20
2007,02,17,10,52,8.60
2007,02,17,10,53,6.40
2007,02,17,10,54,8.70
2007,02,17,10,55,8.50
2007,02,17,10,56,13.20
2007,02,17,10,57,6.60
2007,02,17,10,58,8.90
2007,02,17,10,59,15.30
2007,02,17,11,00,10.00
2007,02,17,11,01,6.60
2007,02,17,11,02,10.50
2007,02,17,11,03,11.80
2007,02,17,11,04,8.90
2007,02,17,11,05,7.80
2007,02,17,11,06,9.50
2007,02,17,11,07,12.30
2007,02,17,11,08,14.00
2007,02,17,11,09,15.80
2007,02,17,11,10,17.50
2007,02,17,11,11,12.10
2007,02,17,11,12,9.80
2007,02,17,11,13,17.80
2007,02,17,11,14,11.30
2007,02,17,11,15,15.90
2007,02,17,11,16,14.70
2007,02,17,11,17,15.90
2007,02,17,11,18,11.70
2007,02,17,11,19,13.40
2007,02,17,11,20,13.40
2007,02,17,11,21,11.00
2007,02,17,11,22,13.70
2007,02,17,11,23,20.70
2007,02,17,11,24,16.20
2007,02,17,11,25,14.60
2007,02,17,11,26,17.70
2007,02,17,11,27,14.30
2007,02,17,11,28,12.10
2007,02,17,11,29,17.80
2007,02,17,11,30,14.10
2007,02,17,11,31,11.00
2007,02,17,11,32,13.60
2007,02,17,11,33,10.60
2007,02,17,11,34,8.30
2007,02,17,11,35,15.00
2007,02,17,11,36,14.40
2007,02,17,11,37,17.40
2007,02,17,11,38,15.50
2007,02,17,11,39,14.40
2007,02,17,11,40,12.50
2007,02,17,11,41,7.00
2007,02,17,11,42,13.30
2007,02,17,11,43,12.90
2007,02,17,11,44,9.30
2007,02,17,11,45,11.50
2007,02,17,11,46,11.30
2007,02,17,11,47,17.60
2007,02,17,11,48,17.10
2007,02,17,11,49,12.60
2007,02,17,11,50,15.50
2007,02,17,11,51,14.90
2007,02,17,11,52,18.70
2007,02,17,11,53,18.40
2007,02,17,11,54,20.80
2007,02,17,11,55,17.90
2007,02,17,11,56,14.70
2007,02,17,11,57,18.20
2007,02,17,11,58,22.10
2007,02,17,11,59,14.80
2007,02,17,12,00,18.20
2007,02,17,12,01,17.80
2007,02,17,12,02,21.40
2007,02,17,12,03,20.40
2007,02,17,12,04,15.80
2007,02,17,12,05,16.10
2007,02,17,12,06,22.00
2007,02,17,12,07,19.40
2007,02,17,12,08,22.20
2007,02,17,12,09,18.80
2007,02,17,12,10,19.60
2007,02,17,12,11,12.80
2007,02,17,12,12,14.20
2007,02,17,12,13,22.10
2007,02,17,12,14,17.90
2007,02,17,12,15,17.80
2007,02,17,12,16,12.90
2007,02,17,12,17,16.70
2007,02,17,12,18,19.40
2007,02,17,12,19,19.70
2007,02,17,12,20,14.50
2007,02,17,12,21,21.50
2007,02,17,12,22,20.20
2007,02,17,12,23,15.70
2007,02,17,12,24,21.10
2007,02,17,12,25,20.00
2007,02,17,12,26,14.60
2007,02,17,12,27,12.30
2007,02,17,12,28,19.70
2007,02,17,12,29,15.50
2007,02,17,12,30,19.70
2007,02,17,12,31,22.00
2007,02,17,12,32,23.50
2007,02,17,12,33,23.00
2007,02,17,12,34,19.90
2007,02,17,12,35,14.80
2007,02,17,12,36,22.00
2007,02,17,12,37,19.20
2007,02,17,12,38,16.70
2007,02,17,12,39,21.70
2007,02,17,12,40,22.50
2007,02,17,12,41,20.50
2007,02,17,12,42,18.40
2007,02,17,12,43,24.10
2007,02,17,12,44,17.00
2007,02,17,12,45,19.90
2007,02,17,12,46,21.60
2007,02,17,12,47,20.60
2007,02,17,12,48,13.60
2007,02,17,12,49,16.30
2007,02,17,12,50,18.40
2007,02,17,12,51,19.50
2007,02,17,12,52,18.30
2007,02,17,12,53,18.70
2007,02,17,12,54,12.10
2007,02,17,12,55,11.70
2007,02,17,12,56,10.90
2007,02,17,12,57,13.20
2007,02,17,12,58,12.70
2007,02,17,12,59,11.80
2007,02,17,13,00,14.30
2007,02,17,13,01,13.10
2007,02,17,13,02,15.60
2007,02,17,13,03,19.50
2007,02,17,13,04,17.10
2007,02,17,13,05,21.00
2007,02,17,13,06,16.20
2007,02,17,13,07,21.50
2007,02,17,13,08,17.80
2007,02,17,13,09,15.50
2007,02,17,13,10,22.00
2007,02,17,13,11,15.80
2007,02,17,13,12,9.20
2007,02,17,13,13,13.80
2007,02,17,13,14,18.00
2007,02,17,13,15,18.40
2007,02,17,13,16,18.90
2007,02,17,13,17,23.90
2007,02,17,13,18,24.00
2007,02,17,13,19,15.30
2007,02,17,13,20,14.20
2007,02,17,13,21,15.50
2007,02,17,13,22,19.00
2007,02,17,13,23,21.20
2007,02,17,13,24,19.40
2007,02,17,13,25,26.70
2007,02,17,13,26,21.10
2007,02,17,13,27,22.80
2007,02,17,13,28,20.60
2007,02,17,13,29,24.10
2007,02,17,13,30,21.40
2007,02,17,13,31,24.10
2007,02,17,13,32,25.00
2007,02,17,13,33,19.10
2007,02,17,13,34,25.70
2007,02,17,13,35,23.30
2007,02,17,13,36,25.40
2007,02,17,13,37,23.30
2007,02,17,13,38,23.00
2007,02,17,13,39,21.60
2007,02,17,13,40,26.40
2007,02,17,13,41,23.10
2007,02,17,13,42,17.30
2007,02,17,13,43,5.70
2007,02,17,13,44,14.80
2007,02,17,13,45,14.90
2007,02,17,13,46,21.20
2007,02,17,13,47,16.30
2007,02,17,13,48,22.60
2007,02,17,13,49,25.00
2007,02,17,13,50,21.00
2007,02,17,13,51,21.30
2007,02,17,13,52,17.60
2007,02,17,13,53,14.10
2007,02,17,13,54,9.80
2007,02,17,13,55,14.30
2007,02,17,13,56,12.60
2007,02,17,13,57,7.60
2007,02,17,13,58,9.70
2007,02,17,13,59,9.30
2007,02,17,14,00,5.80
2007,02,17,14,01,8.00
2007,02,17,14,02,8.90
2007,02,17,14,03,12.40
2007,02,17,14,04,15.60
2007,02,17,14,05,18.00
2007,02,17,14,06,11.90
2007,02,17,14,07,11.60
2007,02,17,14,08,15.70
2007,02,17,14,09,12.60
2007,02,17,14,10,10.30
2007,02,17,14,11,9.70
2007,02,17,14,12,12.20
2007,02,17,14,13,13.10
2007,02,17,14,14,8.30
2007,02,17,14,15,9.70
2007,02,17,14,16,6.20
2007,02,17,14,17,5.10
2007,02,17,14,18,6.80
2007,02,17,14,19,2.90
2007,02,17,14,20,5.30
2007,02,17,14,21,3.00
2007,02,17,14,22,4.60
2007,02,17,14,23,7.40
2007,02,17,14,24,2.70
2007,02,17,14,25,2.30
2007,02,17,14,26,6.60
2007,02,17,14,27,6.00
2007,02,17,14,28,8.40
2007,02,17,14,29,5.80
2007,02,17,14,30,5.80
2007,02,17,14,31,4.70
2007,02,17,14,32,3.90
2007,02,17,14,33,2.90
2007,02,17,14,34,2.50
2007,02,17,14,35,3.00
2007,02,17,14,36,6.20
2007,02,17,14,37,2.60
2007,02,17,14,38,4.00
2007,02,17,14,39,5.70
2007,02,17,14,40,5.40
2007,02,17,14,41,4.80
2007,02,17,14,42,2.80
2007,02,17,14,43,6.70
2007,02,17,14,44,2.40
2007,02,17,14,45,0.20
2007,02,17,14,46,0.60
2007,02,17,14,47,3.10
2007,02,17,14,48,4.10
2007,02,17,14,49,3.50
2007,02,17,14,50,0.10
2007,02,17,14,51,2.10
2007,02,17,14,52,4.10
2007,02,17,14,53,0.50
2007,02,17,14,54,0.00
2007,02,17,14,55,5.80
2007,02,17,14,56,2.70
2007,02,17,14,57,3.20
2007,02,17,14,58,1.40
2007,02,17,14,59,2.50
2007,02,17,15,00,0.90
2007,02,17,15,01,2.50
2007,02,17,15,02,2.10
2007,02,17,15,03,1.40
2007,02,17,15,04,0.00
2007,02,17,15,05,0.60
2007,02,17,15,06,2.10
2007,02,17,15,07,0.20
2007,02,17,15,08,0.10
2007,02,17,15,09,0.00
2007,02,17,15,10,0.50
2007,02,17,15,11,0.00
2007,02,17,15,12,1.40
2007,02,17,15,13,0.40
2007,02,17,15,14,0.20
2007,02,17,15,15,1.80
2007,02,17,15,16,2.10
2007,02,17,15,17,0.10
2007,02,17,15,18,1.10
2007,02,17,15,19,0.10
2007,02,17,15,20,0.00
2007,02,17,15,21,0.00
2007,02,17,15,22,3.00
2007,02,17,15,23,1.90
2007,02,17,15,24,2.70
2007,02,17,15,25,1.90
2007,02,17,15,26,1.40
2007,02,17,15,27,0.00
2007,02,17,15,28,0.00
2007,02,17,15,29,0.00
2007,02,17,15,30,0.00
2007,02,17,15,31,0.00
2007,02,17,15,32,0.00
2007,02,17,15,33,0.00
2007,02,17,15,34,0.00
2007,02,17,15,35,0.00
2007,02,17,15,36,0.20
2007,02,17,15,37,0.00
2007,02,17,15,38,0.00
2007,02,17,15,39,0.40
2007,02,17,15,40,0.00
2007,02,17,15,41,0.00
2007,02,17,15,42,0.10
2007,02,17,15,43,1.90
2007,02,17,15,44,1.10
2007,02,17,15,45,0.60
2007,02,17,15,46,0.00
2007,02,17,15,47,0.00
2007,02,17,15,48,0.00
2007,02,17,15,49,0.80
2007,02,17,15,50,1.90
2007,02,17,15,51,0.40
2007,02,17,15,52,0.00
2007,02,17,15,53,0.00
2007,02,17,15,54,0.00
2007,02,17,15,55,0.00
2007,02,17,15,56,0.00
2007,02,17,15,57,0.00
2007,02,17,15,58,0.00
2007,02,17,15,59,0.30
2007,02,17,16,00,0.00
2007,02,17,16,01,0.40
2007,02,17,16,02,2.70
2007,02,17,16,03,0.80
2007,02,17,16,04,0.00
2007,02,17,16,05,1.70
2007,02,17,16,06,0.00
2007,02,17,16,07,0.00
2007,02,17,16,08,0.00
2007,02,17,16,09,0.00
2007,02,17,16,10,0.00
2007,02,17,16,11,0.00
2007,02,17,16,12,0.00
2007,02,17,16,13,0.60
2007,02,17,16,14,0.10
2007,02,17,16,15,0.00
2007,02,17,16,16,0.80
2007,02,17,16,17,3.00
2007,02,17,16,18,2.00
2007,02,17,16,19,0.30
2007,02,17,16,20,1.60
2007,02,17,16,21,3.50
2007,02,17,16,22,2.20
2007,02,17,16,23,0.40
2007,02,17,16,24,0.00
2007,02,17,16,25,0.00
2007,02,17,16,26,0.10
2007,02,17,16,27,1.00
2007,02,17,16,28,4.10
2007,02,17,16,29,0.30
2007,02,17,16,30,0.10
2007,02,17,16,31,2.80
2007,02,17,16,32,2.70
2007,02,17,16,33,5.10
2007,02,17,16,34,5.20
2007,02,17,16,35,8.10
2007,02,17,16,36,2.60
2007,02,17,16,37,0.30
2007,02,17,16,38,3.40
2007,02,17,16,39,2.20
2007,02,17,16,40,2.30
2007,02,17,16,41,5.00
2007,02,17,16,42,1.10
2007,02,17,16,43,4.50
2007,02,17,16,44,4.50
2007,02,17,16,45,3.80
2007,02,17,16,46,5.30
2007,02,17,16,47,3.30
2007,02,17,16,48,3.20
2007,02,17,16,49,2.50
2007,02,17,16,50,3.80
2007,02,17,16,51,2.10
2007,02,17,16,52,0.00
2007,02,17,16,53,0.00
2007,02,17,16,54,0.00
2007,02,17,16,55,1.90
2007,02,17,16,56,2.90
2007,02,17,16,57,1.40
2007,02,17,16,58,0.60
2007,02,17,16,59,0.00
2007,02,17,17,00,1.30
2007,02,17,17,01,2.60
2007,02,17,17,02,1.10
2007,02,17,17,03,0.30
2007,02,17,17,04,1.20
2007,02,17,17,05,4.30
2007,02,17,17,06,4.50
2007,02,17,17,07,5.40
2007,02,17,17,08,5.80
2007,02,17,17,09,4.80
2007,02,17,17,10,2.10
2007,02,17,17,11,3.00
2007,02,17,17,12,2.70
2007,02,17,17,13,2.90
2007,02,17,17,14,0.20
2007,02,17,17,15,1.90
2007,02,17,17,16,0.00
2007,02,17,17,17,0.00
2007,02,17,17,18,1.90
2007,02,17,17,19,1.00
2007,02,17,17,20,0.90
2007,02,17,17,21,2.30
2007,02,17,17,22,0.40
2007,02,17,17,23,0.10
2007,02,17,17,24,0.00
2007,02,17,17,25,0.50
2007,02,17,17,26,0.40
2007,02,17,17,27,0.00
2007,02,17,17,28,2.20
2007,02,17,17,29,0.30
2007,02,17,17,30,0.30
2007,02,17,17,31,0.00
2007,02,17,17,32,0.00
2007,02,17,17,33,0.00
2007,02,17,17,34,0.20
2007,02,17,17,35,1.00
2007,02,17,17,36,0.00
2007,02,17,17,37,0.60
2007,02,17,17,38,1.70
2007,02,17,17,39,1.10
2007,02,17,17,40,1.00
2007,02,17,17,41,0.20
2007,02,17,17,42,1.50
2007,02,17,17,43,1.30
2007,02,17,17,44,0.60
2007,02,17,17,45,1.00
2007,02,17,17,46,0.00
2007,02,17,17,47,0.40
2007,02,17,17,48,0.50
2007,02,17,17,49,0.00
2007,02,17,17,50,0.00
2007,02,17,17,51,0.00
2007,02,17,17,52,0.30
2007,02,17,17,53,0.00
2007,02,17,17,54,0.70
2007,02,17,17,55,0.70